When you browse on this site, cookies collect data to enhance your experience and personalize the content and advertising you see.
Visit our Privacy Policy to learn more. By continuing to use the site, you agree to this use of cookies and data.
  • In United Kingdom
  • List of Countries
  • For 7 days
  • Water Temperature
  • Weather Map
  • Weather Widgets
  • user-avatar
    Login

    Hourly Weather Brighton

    Today, 17 October, Thursday

    Time Temperature Precipitation Wind Pressure Humidity
    00:00 +11°C° 0 mm 3 mps 751 mmHg 82%
    01:00 +11°C° 0.1 mm 4 mps 751 mmHg 82%
    02:00 +11°C° 0.1 mm 4 mps 751 mmHg 82%
    03:00 +11°C° 0.1 mm 4 mps 751 mmHg 81%
    04:00 +11°C° 0.1 mm 4 mps 751 mmHg 82%
    05:00 +11°C° 0.1 mm 4 mps 751 mmHg 83%
    06:00 +10°C° 0.1 mm 4 mps 751 mmHg 83%
    07:00 +10°C° 0.1 mm 5 mps 751 mmHg 81%
    08:00 +12°C° 0.1 mm 5 mps 751 mmHg 80%
    09:00 +13°C° 0.1 mm 6 mps 751 mmHg 78%
    10:00 +12°C° 0.4 mm 7 mps 750 mmHg 77%
    11:00 +13°C° 0.4 mm 8 mps 750 mmHg 77%
    12:00 +13°C° 0.4 mm 9 mps 750 mmHg 76%
    13:00 +13°C° 0.4 mm 8 mps 750 mmHg 75%
    14:00 +13°C° 0.4 mm 8 mps 750 mmHg 75%
    15:00 +13°C° 0.4 mm 8 mps 749 mmHg 74%
    16:00 +13°C° 0.1 mm 8 mps 749 mmHg 77%
    17:00 +12°C° 0.1 mm 7 mps 749 mmHg 80%
    18:00 +11°C° 0.1 mm 7 mps 749 mmHg 82%
    19:00 +11°C° 0.2 mm 7 mps 749 mmHg 83%
    20:00 +11°C° 0.2 mm 7 mps 749 mmHg 83%
    21:00 +11°C° 0.2 mm 8 mps 749 mmHg 83%
    22:00 +11°C° 0.3 mm 8 mps 748 mmHg 83%
    23:00 +11°C° 0.3 mm 9 mps 747 mmHg 83%

    Tomorrow, 18 October, Friday

    Time Temperature Precipitation Wind Pressure Humidity
    00:00 +11°C° 0.3 mm 10 mps 747 mmHg 83%
    01:00 +11°C° 0.9 mm 11 mps 746 mmHg 84%
    02:00 +10°C° 0.9 mm 12 mps 746 mmHg 85%
    03:00 +10°C° 0.9 mm 13 mps 745 mmHg 85%
    04:00 +9°C° 1 mm 12 mps 745 mmHg 85%
    05:00 +9°C° 1 mm 11 mps 745 mmHg 84%
    06:00 +8°C° 1 mm 10 mps 746 mmHg 83%
    07:00 +9°C° 0.3 mm 10 mps 746 mmHg 80%
    08:00 +11°C° 0.3 mm 10 mps 747 mmHg 76%
    09:00 +11°C° 0.3 mm 10 mps 747 mmHg 73%
    10:00 +12°C° 0.3 mm 11 mps 747 mmHg 73%
    11:00 +12°C° 0.3 mm 12 mps 748 mmHg 72%
    12:00 +12°C° 0.3 mm 13 mps 748 mmHg 71%
    13:00 +12°C° 0.6 mm 12 mps 748 mmHg 72%
    14:00 +12°C° 0.6 mm 12 mps 747 mmHg 73%
    15:00 +12°C° 0.6 mm 12 mps 747 mmHg 74%
    16:00 +11°C° 0.3 mm 11 mps 747 mmHg 76%
    17:00 +11°C° 0.3 mm 10 mps 747 mmHg 77%
    18:00 +10°C° 0.3 mm 9 mps 747 mmHg 78%
    19:00 +10°C° 0.1 mm 9 mps 747 mmHg 79%
    20:00 +10°C° 0.1 mm 9 mps 747 mmHg 79%
    21:00 +10°C° 0.1 mm 8 mps 747 mmHg 79%
    22:00 +10°C° 0.2 mm 8 mps 747 mmHg 80%
    23:00 +10°C° 0.2 mm 8 mps 747 mmHg 81%

    Day after tomorrow, 19 October, Saturday

    Time Temperature Precipitation Wind Pressure Humidity
    00:00 +10°C° 0.2 mm 8 mps 746 mmHg 81%
    01:00 +10°C° 0.2 mm 8 mps 746 mmHg 82%
    02:00 +10°C° 0.2 mm 8 mps 746 mmHg 82%
    03:00 +10°C° 0.2 mm 8 mps 746 mmHg 82%
    04:00 +10°C° 0.3 mm 7 mps 745 mmHg 83%
    05:00 +10°C° 0.3 mm 7 mps 745 mmHg 84%
    06:00 +10°C° 0.3 mm 7 mps 745 mmHg 84%
    07:00 +10°C° 0.3 mm 7 mps 745 mmHg 83%
    08:00 +11°C° 0.3 mm 7 mps 745 mmHg 81%
    09:00 +12°C° 0.3 mm 7 mps 745 mmHg 79%
    10:00 +12°C° 0.2 mm 7 mps 746 mmHg 76%
    11:00 +12°C° 0.2 mm 7 mps 746 mmHg 73%
    12:00 +14°C° 0.2 mm 7 mps 746 mmHg 71%
    13:00 +14°C° 0.2 mm 7 mps 746 mmHg 72%
    14:00 +12°C° 0.2 mm 7 mps 746 mmHg 72%
    15:00 +12°C° 0.2 mm 7 mps 746 mmHg 73%
    16:00 +11°C° 0.1 mm 7 mps 746 mmHg 76%
    17:00 +10°C° 0.1 mm 6 mps 747 mmHg 79%
    18:00 +9°C° 0.1 mm 6 mps 747 mmHg 82%
    19:00 +9°C° 0 mm 6 mps 748 mmHg 82%
    20:00 +9°C° 0 mm 6 mps 748 mmHg 82%
    21:00 +8°C° 0 mm 6 mps 748 mmHg 82%
    22:00 +8°C° 0 mm 6 mps 749 mmHg 84%
    23:00 +8°C° 0 mm 5 mps 749 mmHg 86%

    20 October, Sunday

    Time Temperature Precipitation Wind Pressure Humidity
    00:00 +8°C° 0 mm 5 mps 749 mmHg 88%
    01:00 +7°C° 0 mm 4 mps 749 mmHg 89%
    02:00 +7°C° 0 mm 4 mps 750 mmHg 90%
    03:00 +7°C° 0 mm 4 mps 750 mmHg 91%
    04:00 +7°C° 0 mm 3 mps 750 mmHg 91%
    05:00 +7°C° 0 mm 3 mps 750 mmHg 91%
    06:00 +7°C° 0 mm 2 mps 751 mmHg 91%
    07:00 +8°C° 0 mm 2 mps 751 mmHg 89%
    08:00 +9°C° 0 mm 2 mps 752 mmHg 87%
    09:00 +9°C° 0 mm 2 mps 752 mmHg 84%
    10:00 +10°C° 0 mm 2 mps 752 mmHg 80%
    11:00 +12°C° 0 mm 2 mps 753 mmHg 75%
    12:00 +13°C° 0 mm 1 mps 753 mmHg 71%
    13:00 +13°C° 0 mm 2 mps 753 mmHg 71%
    14:00 +13°C° 0 mm 2 mps 753 mmHg 71%
    15:00 +13°C° 0 mm 2 mps 753 mmHg 71%
    16:00 +12°C° 0 mm 2 mps 754 mmHg 75%
    17:00 +10°C° 0 mm 3 mps 754 mmHg 80%
    18:00 +9°C° 0 mm 3 mps 754 mmHg 84%
    19:00 +9°C° 0 mm 3 mps 755 mmHg 85%
    20:00 +9°C° 0 mm 3 mps 755 mmHg 85%
    21:00 +8°C° 0 mm 3 mps 755 mmHg 85%
    22:00 +8°C° 0 mm 3 mps 755 mmHg 86%
    23:00 +7°C° 0 mm 3 mps 755 mmHg 87%

    21 October, Monday

    Time Temperature Precipitation Wind Pressure Humidity
    00:00 +7°C° 0 mm 3 mps 755 mmHg 88%
    01:00 +7°C° 0 mm 3 mps 756 mmHg 88%
    02:00 +6°C° 0 mm 2 mps 756 mmHg 88%
    03:00 +6°C° 0 mm 2 mps 756 mmHg 87%
    04:00 +6°C° 0 mm 2 mps 756 mmHg 87%
    05:00 +6°C° 0 mm 1 mps 757 mmHg 88%
    06:00 +6°C° 0 mm 1 mps 757 mmHg 88%
    07:00 +7°C° 0 mm 1 mps 757 mmHg 85%
    08:00 +9°C° 0 mm 1 mps 758 mmHg 81%
    09:00 +10°C° 0 mm 1 mps 758 mmHg 78%
    10:00 +11°C° 0 mm 1 mps 759 mmHg 73%
    11:00 +12°C° 0 mm 1 mps 759 mmHg 69%
    12:00 +13°C° 0 mm 1 mps 760 mmHg 64%
    13:00 +13°C° 0 mm 1 mps 760 mmHg 64%
    14:00 +13°C° 0 mm 1 mps 760 mmHg 64%
    15:00 +13°C° 0 mm 1 mps 760 mmHg 64%
    16:00 +12°C° 0 mm 1 mps 760 mmHg 69%
    17:00 +11°C° 0 mm 1 mps 761 mmHg 74%
    18:00 +8°C° 0 mm 0 mps 761 mmHg 80%
    19:00 +9°C° 0 mm 1 mps 761 mmHg 81%
    20:00 +9°C° 0 mm 1 mps 762 mmHg 82%
    21:00 +8°C° 0 mm 1 mps 762 mmHg 83%
    22:00 +8°C° 0 mm 1 mps 762 mmHg 84%
    23:00 +8°C° 0 mm 1 mps 762 mmHg 84%

    22 October, Tuesday

    Time Temperature Precipitation Wind Pressure Humidity
    00:00 +8°C° 0 mm 1 mps 763 mmHg 84%
    01:00 +8°C° 0 mm 1 mps 762 mmHg 85%
    02:00 +7°C° 0 mm 1 mps 762 mmHg 85%
    03:00 +6°C° 0 mm 2 mps 762 mmHg 85%
    04:00 +6°C° 0 mm 2 mps 763 mmHg 85%
    05:00 +6°C° 0 mm 2 mps 763 mmHg 85%
    06:00 +6°C° 0 mm 2 mps 763 mmHg 85%
    07:00 +7°C° 0 mm 2 mps 763 mmHg 82%
    08:00 +8°C° 0 mm 2 mps 763 mmHg 79%
    09:00 +10°C° 0 mm 2 mps 763 mmHg 76%
    10:00 +12°C° 0 mm 2 mps 764 mmHg 74%
    11:00 +13°C° 0 mm 2 mps 764 mmHg 72%
    12:00 +14°C° 0 mm 2 mps 764 mmHg 70%
    13:00 +14°C° 0 mm 2 mps 763 mmHg 71%
    14:00 +14°C° 0 mm 2 mps 763 mmHg 72%
    15:00 +14°C° 0 mm 2 mps 763 mmHg 73%
    16:00 +13°C° 0 mm 2 mps 762 mmHg 77%
    17:00 +12°C° 0 mm 2 mps 762 mmHg 81%
    18:00 +10°C° 0 mm 1 mps 762 mmHg 85%
    19:00 +10°C° 0 mm 1 mps 762 mmHg 85%
    20:00 +9°C° 0 mm 2 mps 762 mmHg 85%
    21:00 +8°C° 0 mm 2 mps 762 mmHg 84%
    22:00 +8°C° 0 mm 2 mps 762 mmHg 84%
    23:00 +8°C° 0 mm 2 mps 762 mmHg 84%
    Show more